TimeAKDT,TemperatureF,Dew PointF,Humidity,Sea Level PressureIn,VisibilityMPH,Wind Direction,Wind SpeedMPH,Gust SpeedMPH,PrecipitationIn,Events,Conditions,WindDirDegrees,DateUTC
12:53 AM,46.0,43.0,89,29.86,10.0,NE,4.6,-,N/A,,Scattered Clouds,50,2013-09-13 08:53:00
1:53 AM,46.0,42.1,86,29.87,10.0,Calm,Calm,-,N/A,,Scattered Clouds,0,2013-09-13 09:53:00
2:53 AM,43.0,39.9,89,29.88,10.0,Calm,Calm,-,N/A,,Partly Cloudy,0,2013-09-13 10:53:00
3:53 AM,43.0,39.9,89,29.88,10.0,Calm,Calm,-,N/A,,Scattered Clouds,0,2013-09-13 11:53:00
4:53 AM,42.1,39.9,92,29.89,10.0,Calm,Calm,-,N/A,,Scattered Clouds,0,2013-09-13 12:53:00
5:53 AM,43.0,39.9,89,29.89,10.0,Calm,Calm,-,N/A,,Scattered Clouds,0,2013-09-13 13:53:00
6:53 AM,42.1,39.0,89,29.90,10.0,North,3.5,-,N/A,,Scattered Clouds,360,2013-09-13 14:53:00
7:53 AM,41.0,39.0,93,29.91,10.0,Calm,Calm,-,N/A,,Scattered Clouds,0,2013-09-13 15:53:00
8:53 AM,43.0,39.9,89,29.92,10.0,Calm,Calm,-,N/A,,Mostly Cloudy,0,2013-09-13 16:53:00
9:53 AM,45.0,39.9,82,29.92,10.0,NNE,3.5,-,N/A,,Mostly Cloudy,30,2013-09-13 17:53:00
10:53 AM,45.0,39.9,82,29.93,10.0,Calm,Calm,-,0.00,Rain,Light Rain,0,2013-09-13 18:53:00
11:53 AM,46.9,42.1,83,29.92,10.0,NNE,4.6,-,0.00,,Overcast,20,2013-09-13 19:53:00
12:53 PM,48.9,42.1,77,29.92,10.0,Calm,Calm,-,0.00,Rain,Light Rain,0,2013-09-13 20:53:00
1:53 PM,50.0,44.1,80,29.92,10.0,NNW,3.5,-,0.00,Rain,Light Rain,340,2013-09-13 21:53:00
2:53 PM,50.0,45.0,83,29.93,10.0,Calm,Calm,-,0.00,Rain,Light Rain,0,2013-09-13 22:53:00
3:53 PM,50.0,46.0,86,29.93,10.0,Calm,Calm,-,0.01,Rain,Light Rain,0,2013-09-13 23:53:00
4:53 PM,51.1,46.0,83,29.92,10.0,NE,4.6,-,0.00,Rain,Light Rain,40,2013-09-14 00:53:00
5:53 PM,52.0,46.9,83,29.92,10.0,North,3.5,-,0.01,Rain,Light Rain,360,2013-09-14 01:53:00
6:53 PM,52.0,46.9,83,29.92,10.0,Calm,Calm,-,0.00,,Overcast,0,2013-09-14 02:53:00
7:53 PM,51.1,46.9,86,29.93,10.0,WSW,3.5,-,0.00,Rain,Light Rain,240,2013-09-14 03:53:00
8:53 PM,50.0,46.9,89,29.94,10.0,Calm,Calm,-,0.00,Rain,Light Rain,0,2013-09-14 04:53:00
9:53 PM,48.9,46.0,90,29.94,10.0,Calm,Calm,-,0.00,Rain,Light Rain,0,2013-09-14 05:53:00
10:53 PM,48.9,46.0,90,29.95,10.0,Calm,Calm,-,0.00,Rain,Light Rain,0,2013-09-14 06:53:00
11:53 PM,48.9,46.0,90,29.95,8.0,Calm,Calm,-,0.00,Rain,Light Rain,0,2013-09-14 07:53:00